Flag for U.S.A. Weather past 2 weeks in Fresno, California, U.S.A.

Now
76 °F

Partly sunny.


Feels Like: 78 °F
Forecast: 65 / 90 °F
Wind: 6 mph from West

Location: Fresno Air Terminal

Current Time: Aug 4, 2015 at 12:01:01 PM

Latest Report: Aug 4, 2015 at 10:53 AM


Visibility: 10 mi

Pressure: 29.94 "Hg

Humidity: 43%

Dew point: 52 °F

Location of FresnoLocation

Historic Weather in Fresno — Graph

°F

Fresno temperature yesterday

Maximum temperature yesterday: 94 °F (at 3:53 PM)
Minimum temperature yesterday: 68 °F (at 5:53 AM)
Average temperature yesterday: 80 °F

Past Weeks' High & Low Weather Summary

 TemperatureHumidityPressure
High107 °F (Jul 29, 5:53 PM)66% (Aug 4, 4:53 AM)30.06 "Hg (Aug 4, 4:53 AM)
Low64 °F (Jul 23, 6:53 AM)9% (Jul 26, 5:53 PM)29.70 "Hg (Jul 21, 5:53 PM)
Average84 °F34%29.87 "Hg
* Reported Jul 20 10:53 AM — Aug 4 10:53 AM, Fresno, Weather by CustomWeather, © 2015

Note: Actual official high and low records may vary slightly from our data, if they occured in-between our weather recording intervals... More about our weather records

Advertising

Fresno weather history for previous 24 hours

 ConditionsComfort  
Time TempWeatherWind HumidityBarometerVisibility
10:53 AM
Tue, Aug 4
76 °FPartly sunny.6 mph43%29.94 "Hg10 mi
9:53 AM74 °FScattered clouds.3 mph46%29.94 "Hg10 mi
8:53 AM70 °FSunny.5 mph53%29.95 "Hg10 mi
7:53 AM67 °FSunny.6 mph59%29.94 "Hg10 mi
6:53 AM65 °FPassing clouds.6 mph66%29.93 "Hg10 mi
5:53 AM65 °FPassing clouds.7 mph66%29.92 "Hg10 mi
4:53 AM65 °FPassing clouds.9 mph66%29.90 "Hg10 mi
3:53 AM67 °FPassing clouds.12 mph61%29.89 "Hg10 mi
2:53 AM68 °FPassing clouds.14 mph59%29.88 "Hg10 mi
1:53 AM69 °FPassing clouds.15 mph57%29.87 "Hg10 mi
12:53 AM71 °FPassing clouds.14 mph55%29.88 "Hg10 mi
11:53 PM
Mon, Aug 3
74 °FPassing clouds.15 mph52%29.86 "Hg10 mi
10:53 PM78 °FPassing clouds.14 mph46%29.85 "Hg10 mi
9:53 PM81 °FPassing clouds.13 mph44%29.84 "Hg10 mi
8:53 PM85 °FScattered clouds.17 mph36%29.82 "Hg10 mi
7:53 PM88 °FBroken clouds.13 mph30%29.80 "Hg10 mi
6:53 PM92 °FPartly sunny.14 mph28%29.79 "Hg10 mi
5:53 PM94 °FPartly sunny.14 mph26%29.79 "Hg10 mi
4:53 PM94 °FScattered clouds.12 mph26%29.79 "Hg10 mi
3:53 PM94 °FPartly sunny.9 mph22%29.82 "Hg10 mi
2:53 PM92 °FPartly sunny.7 mph24%29.84 "Hg10 mi
1:53 PM92 °FPartly sunny.8 mph26%29.87 "Hg10 mi
12:53 PM87 °FPartly sunny.6 mph30%29.88 "Hg10 mi
Weather by CustomWeather, © 2015

See weather overviewHow to use our weather pages